Weather past 2 weeks in Cayenne, French Guiana

Now
88 °F

Broken clouds.


Feels Like: 94 °F
Forecast: 79 / 84 °F
Wind: 14 mph from East

Location: Cayenne / Rochambeau


UV Index: 10 (Very high)

Visibility: N/A


Pressure: 29.92 "Hg

Humidity: 59%

Dew point: 72 °F

Location of CayenneLocation

Historic Weather in Cayenne

°F

Cayenne temperature yesterday

Maximum temperature yesterday: 84 °F (at 10:00 AM)
Minimum temperature yesterday: 75 °F (at 6:30 AM)
Average temperature yesterday: 80 °F

Past Weeks' High & Low Weather Summary

 TemperatureHumidityPressure
High88 °F (Apr 3, 1:00 PM)94% (Apr 2, 11:30 PM)30.01 "Hg (Apr 2, 11:30 PM)
Low72 °F (Apr 3, 3:30 AM)49% (Apr 10, 2:00 PM)29.80 "Hg (Apr 13, 3:30 PM)
Average81 °F77%29.91 "Hg
* Reported Apr 1 10:00 AM — Apr 16 10:30 AM, Cayenne, Weather by CustomWeather, © 2014

Note: Actual official high and low records may vary slightly from our data, if they occured in-between our weather recording intervals... More about our weather records

Advertising

Historic Weather Conditions — Data for Previous 24 hours

 ConditionsComfort  
Time TempWeatherWind HumidityBarometerVisibility
10:30 AM
Apr 16
86 °FPartly sunny.12 mph59%29.92 "HgN/A
10:00 AM86 °FScattered clouds.12 mph62%29.92 "HgN/A
9:30 AM84 °FPassing clouds.13 mph66%29.92 "HgN/A
9:00 AM84 °FBroken clouds.12 mph66%29.92 "HgN/A
8:30 AM84 °FOvercast.15 mph66%29.89 "HgN/A
8:00 AM82 °FOvercast.10 mph74%29.89 "HgN/A
7:30 AM79 °FBroken clouds.3 mph84%29.89 "HgN/A
7:00 AM77 °FBroken clouds.2 mph89%29.86 "HgN/A
6:30 AM77 °FBroken clouds.3 mph83%29.86 "HgN/A
6:00 AM79 °FPartly cloudy.2 mph79%29.86 "HgN/A
5:30 AM79 °FPartly cloudy.5 mph79%29.86 "HgN/A
5:00 AM79 °FPassing clouds.7 mph79%29.83 "HgN/A
4:30 AM79 °FPassing clouds.7 mph84%29.83 "HgN/A
4:00 AM79 °FMostly cloudy.7 mph84%29.83 "HgN/A
3:30 AM79 °FPassing clouds.7 mph84%29.83 "HgN/A
3:00 AM79 °FPassing clouds.5 mph84%29.83 "HgN/A
2:30 AM79 °FPassing clouds.6 mph84%29.86 "HgN/A
2:00 AM79 °FPartly cloudy.6 mph84%29.86 "HgN/A
1:30 AM79 °FPassing clouds.5 mph84%29.86 "HgN/A
1:00 AM77 °FPassing clouds.3 mph94%29.86 "HgN/A
12:30 AM77 °FMostly cloudy.5 mph89%29.89 "HgN/A
12:00 AM79 °FPartly cloudy.3 mph84%29.89 "Hg6 mi
11:30 PM
Apr 15
77 °FMostly cloudy.3 mph89%29.89 "HgN/A
11:00 PM77 °FPartly cloudy.3 mph89%29.89 "HgN/A
10:30 PM77 °FPartly cloudy.5 mph89%29.89 "HgN/A
10:00 PM79 °FPassing clouds.6 mph84%29.89 "Hg4 mi
8:00 PM79 °FClear.6 mph79%29.83 "HgN/A
7:30 PM79 °FPassing clouds.5 mph79%29.83 "HgN/A
7:00 PM81 °FPassing clouds.6 mph74%29.83 "HgN/A
6:00 PM82 °FPassing clouds.13 mph70%29.80 "HgN/A
5:30 PM82 °FPassing clouds.13 mph70%29.80 "HgN/A
5:00 PM82 °FScattered clouds.12 mph70%29.80 "HgN/A
4:30 PM84 °FPartly sunny.14 mph66%29.80 "HgN/A
4:00 PM84 °FPassing clouds.17 mph66%29.80 "HgN/A
3:30 PM84 °FScattered clouds.17 mph66%29.80 "HgN/A
3:00 PM84 °FPassing clouds.17 mph70%29.83 "HgN/A
2:30 PM84 °FScattered clouds.18 mph66%29.83 "HgN/A
2:00 PM82 °FBroken clouds.15 mph79%29.83 "HgN/A
1:30 PM81 °FBroken clouds.14 mph84%29.86 "HgN/A
1:00 PM84 °FBroken clouds.18 mph74%29.86 "HgN/A
12:30 PM81 °FLight rain. Broken clouds.15 mph79%29.89 "HgN/A
12:00 PM82 °FBroken clouds.9 mph79%29.89 "HgN/A
Weather by CustomWeather, © 2014

See weather overview